[[{"header":{"parameterUnit":"m.s-1","parameterCategory":2,"la1":30.2991,"la2":30.254,"lo1":-89.0895,"lo2":-89.0444,"dy":0.0017,"dx":0.0017,"nx":28,"ny":28,"refTime":"2023-08-20T09:00:00:Z","depth":"0","parameterNumber":2,"parameterNumberName":"U-component_of_CURRENTS"},"data":[0,0,0,0,0,0,0,0,0,0,0,0,0,0,0,0,0,0,0,0,0,0,0,0,0,0,0,0,0,0,0,0,0,0,0,0,0,0,0,0,0,0,0,0,0,0,0,0,0,0,0,0,0,0,0,0,0,0,0.2641,0.2641,0,0.2623,0.2622,0.2622,0.2632,0.2632,0.2633,0.2634,0.262,0.2619,0.2618,0,0,0,0,0,0,0,0,0,0,0,0,0,0.2691,0.269,0.2641,0.2641,0.2641,0.2623,0.2622,0.2622,0.2632,0.2632,0.2633,0.2634,0.262,0.2619,0.2618,0,0,0,0,0,0,0,0,0,0,0,0,0,0.2668,0.2689,0.2641,0.2645,0.2646,0.2623,0.2622,0.2622,0.2631,0.2632,0.2634,0.2634,0.2621,0.2619,0.2618,0.2587,0,0,0.2613,0.2612,0,0,0,0,0,0,0,0,0.267,0.2666,0.2645,0.2645,0.2645,0.2633,0.2635,0.2611,0.2631,0.2634,0.2634,0.2635,0.2625,0.2623,0.2614,0.2587,0.2586,0.2613,0.2612,0.2611,0.2611,0,0,0,0,0,0,0,0.2671,0.2667,0.2632,0.2645,0.2645,0.2651,0.2648,0.263,0.2623,0.2634,0.2636,0.2637,0.2625,0.2616,0.2614,0.2586,0.2613,0.2612,0.2611,0.261,0.2561,0.2561,0,0,0,0,0,0,0.2676,0.2668,0.2632,0.2631,0.2663,0.2649,0.2646,0.2634,0.2623,0.2623,0.2636,0.2637,0.2618,0.2616,0.2614,0.2603,0.2611,0.261,0.2609,0.2561,0.2561,0.256,0,0,0,0,0,0,0.2677,0.2672,0.2633,0.2652,0.2648,0.2647,0.2633,0.2633,0.263,0.2624,0.2624,0.2634,0.2619,0.2616,0.2605,0.2602,0.2609,0.2608,0.2562,0.2561,0.2561,0.2566,0,0,0,0,0,0,0.2678,0.2672,0.2661,0.2652,0.2647,0.2621,0.2632,0.2632,0.263,0.2632,0.2623,0.2622,0.2619,0.2607,0.2604,0.26,0.2607,0.2562,0.2562,0.2561,0.2566,0.2565,0.2565,0,0,0,0,0,0.268,0.2656,0.266,0.2656,0.2632,0.2621,0.2618,0.262,0.2629,0.2622,0.2622,0.2623,0.26,0.2606,0.2601,0.2597,0.2563,0.2562,0.2561,0.2566,0.2565,0.2565,0,0,0,0,0,0,0.2667,0.2655,0.2659,0.2632,0.2631,0.2623,0.2612,0.262,0.2612,0.2613,0.2614,0.2613,0.2605,0.2596,0.2602,0.2581,0.2582,0.2581,0.2588,0.2587,0.2586,0.2573,0.2605,0,0,0,0,0,0.266,0.2639,0.2639,0.2615,0.2614,0.2615,0.261,0.2614,0.2609,0.2607,0.2604,0.2598,0.2594,0.2588,0.258,0.2561,0.2565,0.2556,0.2556,0.2555,0.2541,0.2557,0.2557,0.2558,0.2558,0.2558,0,0,0.2645,0.2638,0.2624,0.2612,0.2607,0.2593,0.2613,0.2602,0.2593,0.2605,0.2586,0.2596,0.259,0.2578,0.2573,0.2571,0.2558,0.2554,0.2554,0.254,0.2556,0.2556,0.2556,0.2557,0.2557,0.2557,0,0,0.2605,0.2603,0.2574,0.2575,0.2573,0.2574,0.2574,0.2571,0.2574,0.2561,0.2574,0.2582,0.2562,0.2565,0.2563,0.2549,0.2558,0.2549,0.253,0.2546,0.2546,0.2547,0.2559,0.256,0.2545,0.2545,0.2545,0,0.2583,0.2555,0.2565,0.2548,0.2545,0.2565,0.2545,0.2544,0.2541,0.2542,0.2554,0.255,0.2554,0.2547,0.2548,0.2548,0.2558,0.2537,0.2546,0.2547,0.2547,0.2559,0.2561,0.2545,0.2545,0.2545,0.2545,0,0.253,0.2514,0.2499,0.2482,0.2484,0.2468,0.2482,0.248,0.2492,0.2498,0.2502,0.2515,0.2517,0.2524,0.253,0.2533,0.254,0.2551,0.2551,0.2547,0.2561,0.2562,0.2545,0.2545,0.2545,0.2545,0,0,0.2441,0.2456,0.2448,0.2441,0.2452,0.2441,0.2437,0.2435,0.2432,0.2444,0.2442,0.2454,0.248,0.2478,0.25,0.2511,0.2533,0.2528,0.2529,0.2545,0.2568,0.2582,0.2585,0.2551,0.2551,0.2551,0.258,0,0.2386,0.2354,0.238,0.2346,0.2328,0.2365,0.2363,0.2373,0.2389,0.2394,0.2424,0.2431,0.2457,0.2471,0.2487,0.2526,0.2535,0.2524,0.2564,0.2565,0.2582,0.2586,0.2635,0.2665,0.2581,0.2581,0.2581,0,0.2307,0.2304,0.2271,0.2287,0.2284,0.2273,0.2281,0.2285,0.2313,0.2335,0.2358,0.239,0.2419,0.2442,0.2496,0.249,0.252,0.2547,0.2549,0.2556,0.2581,0.2653,0.2671,0.2717,0.2583,0.2583,0.2583,0,0.222,0.2216,0.2192,0.2194,0.2218,0.2213,0.2226,0.2256,0.2261,0.2298,0.2312,0.2357,0.2384,0.2429,0.2501,0.2499,0.256,0.2567,0.26,0.2602,0.2645,0.265,0.2714,0.2586,0.2586,0.2586,0.2586,0,0.2134,0.2101,0.2149,0.2128,0.2105,0.2151,0.2134,0.216,0.2197,0.22,0.2274,0.2291,0.2382,0.2436,0.2491,0.2559,0.2557,0.2591,0.2609,0.2648,0.2653,0.2696,0.2709,0.2587,0.2587,0.2587,0.2586,0,0.2011,0.2046,0.2013,0.2048,0.2056,0.2034,0.207,0.2065,0.2121,0.2127,0.2142,0.2239,0.2323,0.2413,0.2499,0.2546,0.2606,0.2628,0.2668,0.2689,0.275,0.2761,0.2658,0.2633,0.2661,0.2662,0.2662,0,0.1927,0.1907,0.1941,0.1932,0.1938,0.1934,0.1939,0.2005,0.2012,0.2092,0.2089,0.2185,0.2252,0.2402,0.253,0.2639,0.2613,0.272,0.2716,0.2755,0.2781,0.2644,0.262,0.2781,0.2783,0.2784,0.2785,0,0.1772,0.1804,0.18,0.1805,0.1801,0.1808,0.1824,0.1829,0.1912,0.1946,0.2008,0.2074,0.2256,0.2417,0.2581,0.2659,0.27,0.2743,0.2784,0.2873,0.2728,0.2713,0.2754,0.2795,0.2794,0.2793,0.2792,0.2792,0.1652,0.1633,0.1662,0.1658,0.1667,0.1681,0.1672,0.1722,0.1752,0.1815,0.1916,0.2031,0.2303,0.2556,0.2662,0.2883,0.274,0.2907,0.2915,0.2767,0.2742,0.2792,0.285,0.285,0.2849,0.2849,0.2848,0,0.1494,0.1515,0.1512,0.1524,0.1511,0.1562,0.159,0.1593,0.1624,0.1735,0.1811,0.2105,0.2374,0.2637,0.2964,0.306,0.2982,0.3073,0.2936,0.2903,0.2988,0.2999,0.3093,0.3093,0.3093,0.3093,0.3093,0.3093,0.1405,0.1376,0.1406,0.1369,0.1385,0.1364,0.1376,0.1412,0.1487,0.1624,0.1785,0.1942,0.2352,0.2902,0.3234,0.3243,0.3139,0.3077,0.3015,0.3176,0.3161,0.3147,0.3161,0.3287,0.3287,0.2877,0.2875,0.2874]},{"header":{"parameterUnit":"m.s-1","parameterCategory":2,"la1":30.2991,"la2":30.254,"lo1":-89.0895,"lo2":-89.0444,"dy":0.0017,"dx":0.0017,"nx":28,"ny":28,"refTime":"2023-08-20T09:00:00:Z","depth":"0","parameterNumber":3,"parameterNumberName":"V-component_of_CURRENTS"},"data":[0,0,0,0,0,0,0,0,0,0,0,0,0,0,0,0,0,0,0,0,0,0,0,0,0,0,0,0,0,0,0,0,0,0,0,0,0,0,0,0,0,0,0,0,0,0,0,0,0,0,0,0,0,0,0,0,0,0,-0.066,-0.066,0,-0.0651,-0.0651,-0.0651,-0.0644,-0.0644,-0.0643,-0.0643,-0.0688,-0.0689,-0.069,0,0,0,0,0,0,0,0,0,0,0,0,0,-0.0674,-0.0674,-0.066,-0.066,-0.066,-0.0651,-0.0651,-0.0651,-0.0644,-0.0644,-0.0643,-0.0643,-0.0687,-0.0689,-0.069,0,0,0,0,0,0,0,0,0,0,0,0,0,-0.0667,-0.0674,-0.066,-0.0655,-0.0654,-0.0651,-0.0651,-0.0651,-0.0644,-0.0644,-0.0643,-0.0643,-0.0687,-0.0689,-0.0691,-0.0706,0,0,-0.0696,-0.0697,0,0,0,0,0,0,0,0,-0.0668,-0.0667,-0.0656,-0.0655,-0.0654,-0.0648,-0.0672,-0.0672,-0.0644,-0.0648,-0.0643,-0.0643,-0.0679,-0.0682,-0.068,-0.0708,-0.071,-0.0697,-0.0698,-0.0699,-0.0699,0,0,0,0,0,0,0,-0.0668,-0.0667,-0.0657,-0.0655,-0.0655,-0.0654,-0.0652,-0.0672,-0.0666,-0.0648,-0.0647,-0.0645,-0.0679,-0.0678,-0.0682,-0.0711,-0.0697,-0.0698,-0.07,-0.07,-0.0761,-0.0761,0,0,0,0,0,0,-0.0668,-0.0668,-0.0657,-0.0657,-0.066,-0.0653,-0.0652,-0.0651,-0.0665,-0.0666,-0.0645,-0.0645,-0.0675,-0.0679,-0.0683,-0.0694,-0.0699,-0.07,-0.0702,-0.0761,-0.0761,-0.0762,0,0,0,0,0,0,-0.0668,-0.0667,-0.0658,-0.0662,-0.066,-0.0653,-0.0652,-0.065,-0.065,-0.0662,-0.0665,-0.0646,-0.0675,-0.068,-0.07,-0.0696,-0.0701,-0.0703,-0.076,-0.0761,-0.0761,-0.0721,0,0,0,0,0,0,-0.0669,-0.0668,-0.0668,-0.0662,-0.066,-0.0655,-0.0652,-0.065,-0.0649,-0.0648,-0.0664,-0.0667,-0.0675,-0.0696,-0.0701,-0.0699,-0.0705,-0.076,-0.076,-0.0761,-0.0722,-0.072,-0.0719,0,0,0,0,0,-0.067,-0.067,-0.0668,-0.0667,-0.066,-0.0655,-0.0654,-0.0649,-0.0649,-0.0649,-0.0659,-0.0667,-0.0705,-0.0698,-0.0704,-0.0702,-0.0759,-0.076,-0.0761,-0.0723,-0.0721,-0.0719,0,0,0,0,0,0,-0.0678,-0.0669,-0.0667,-0.0665,-0.0661,-0.0654,-0.0653,-0.0651,-0.0658,-0.066,-0.0672,-0.0677,-0.0691,-0.0709,-0.07,-0.0724,-0.0734,-0.0736,-0.0703,-0.0702,-0.07,-0.0686,-0.0706,0,0,0,0,0,-0.068,-0.0676,-0.0669,-0.0668,-0.0666,-0.0661,-0.0659,-0.0655,-0.0659,-0.0661,-0.067,-0.0686,-0.0701,-0.071,-0.0726,-0.0741,-0.0754,-0.0745,-0.0744,-0.0742,-0.0736,-0.0755,-0.0753,-0.0765,-0.0765,-0.0765,0,0,-0.0682,-0.0678,-0.0675,-0.0669,-0.0666,-0.0657,-0.0659,-0.0656,-0.0648,-0.0667,-0.0665,-0.0682,-0.0705,-0.0715,-0.0724,-0.0728,-0.0748,-0.0744,-0.0742,-0.0737,-0.0755,-0.0754,-0.0753,-0.0766,-0.0765,-0.0765,0,0,-0.0679,-0.0682,-0.0674,-0.0669,-0.0663,-0.0658,-0.0658,-0.0652,-0.0649,-0.0653,-0.0663,-0.0676,-0.07,-0.0707,-0.0717,-0.0722,-0.0739,-0.0733,-0.0712,-0.073,-0.0728,-0.0727,-0.0743,-0.0744,-0.0732,-0.0732,-0.0732,0,-0.0681,-0.067,-0.0672,-0.0662,-0.0655,-0.0658,-0.0646,-0.0644,-0.0644,-0.0643,-0.0649,-0.0674,-0.0693,-0.0701,-0.07,-0.0716,-0.073,-0.0712,-0.0726,-0.0725,-0.0725,-0.0741,-0.0742,-0.073,-0.073,-0.073,-0.073,0,-0.0668,-0.0659,-0.0656,-0.0641,-0.0638,-0.0629,-0.0625,-0.0623,-0.0623,-0.0621,-0.0629,-0.0651,-0.0664,-0.0674,-0.0687,-0.0695,-0.0706,-0.0719,-0.0724,-0.0721,-0.0739,-0.0741,-0.0727,-0.0728,-0.0728,-0.0729,0,0,-0.0662,-0.0647,-0.0644,-0.0631,-0.0625,-0.0616,-0.0609,-0.0599,-0.0589,-0.0598,-0.0588,-0.0613,-0.0624,-0.0637,-0.0656,-0.067,-0.068,-0.069,-0.0692,-0.0695,-0.0718,-0.0733,-0.0737,-0.0694,-0.0694,-0.0694,-0.0731,0,-0.0647,-0.0621,-0.0621,-0.0595,-0.0581,-0.0583,-0.0573,-0.0568,-0.057,-0.0563,-0.0583,-0.0588,-0.061,-0.0617,-0.0633,-0.0666,-0.0684,-0.0669,-0.073,-0.0732,-0.0737,-0.074,-0.0739,-0.0772,-0.0733,-0.0733,-0.0733,0,-0.0627,-0.0612,-0.0584,-0.0564,-0.0558,-0.0547,-0.0531,-0.0522,-0.0522,-0.0527,-0.0536,-0.0552,-0.0568,-0.0592,-0.064,-0.0629,-0.0671,-0.0698,-0.0701,-0.0729,-0.0751,-0.0771,-0.0778,-0.0823,-0.0737,-0.0736,-0.0736,0,-0.0607,-0.0583,-0.0559,-0.0551,-0.0533,-0.0523,-0.0514,-0.051,-0.0498,-0.0503,-0.0499,-0.0524,-0.0534,-0.0582,-0.0635,-0.0641,-0.0689,-0.0708,-0.0762,-0.0764,-0.0782,-0.0785,-0.083,-0.0749,-0.0749,-0.0749,-0.0749,0,-0.0582,-0.0558,-0.0547,-0.053,-0.0503,-0.0501,-0.0477,-0.0474,-0.0467,-0.045,-0.0478,-0.0471,-0.0533,-0.0564,-0.0622,-0.0691,-0.0682,-0.0756,-0.0774,-0.077,-0.0771,-0.0827,-0.0842,-0.075,-0.075,-0.075,-0.075,0,-0.0549,-0.0544,-0.0513,-0.0496,-0.049,-0.0468,-0.0448,-0.0431,-0.0432,-0.0411,-0.0411,-0.0431,-0.0473,-0.0535,-0.0611,-0.0674,-0.0793,-0.0771,-0.0759,-0.0775,-0.0874,-0.0886,-0.0999,-0.1101,-0.084,-0.0841,-0.0841,0,-0.0522,-0.0506,-0.0487,-0.0472,-0.046,-0.0436,-0.0419,-0.0414,-0.0399,-0.0384,-0.0371,-0.0399,-0.0409,-0.0519,-0.064,-0.0746,-0.0814,-0.082,-0.0836,-0.0877,-0.0904,-0.0961,-0.1044,-0.0847,-0.0847,-0.0848,-0.0848,0,-0.0471,-0.0472,-0.0453,-0.0432,-0.0412,-0.0388,-0.0366,-0.0348,-0.034,-0.0321,-0.0302,-0.0304,-0.0414,-0.0501,-0.0647,-0.074,-0.0887,-0.0833,-0.0879,-0.0914,-0.0976,-0.1082,-0.0823,-0.0852,-0.0851,-0.0851,-0.0851,-0.0851,-0.0435,-0.0415,-0.0404,-0.0382,-0.0365,-0.0339,-0.0309,-0.029,-0.0256,-0.0209,-0.0233,-0.0206,-0.0328,-0.0528,-0.0682,-0.0902,-0.0944,-0.0952,-0.0964,-0.102,-0.1118,-0.0866,-0.0912,-0.0912,-0.0912,-0.0912,-0.0912,0,-0.0382,-0.0372,-0.0352,-0.0327,-0.0303,-0.0306,-0.027,-0.0234,-0.0187,-0.0138,-0.0111,-0.0113,-0.0285,-0.0478,-0.0733,-0.0937,-0.1121,-0.1059,-0.1128,-0.1212,-0.0979,-0.0976,-0.1033,-0.1033,-0.1033,-0.1033,-0.1033,-0.1033,-0.035,-0.0321,-0.0318,-0.0274,-0.026,-0.021,-0.0185,-0.0136,-0.0091,0.001,0.0069,0.0109,0.0137,-0.0406,-0.08,-0.0963,-0.1165,-0.1238,-0.1355,-0.1138,-0.1129,-0.112,-0.1123,-0.1209,-0.1209,-0.1627,-0.163,-0.1632]}],[{"header":{"parameterUnit":"m.s-1","parameterCategory":2,"la1":30.2991,"la2":30.254,"lo1":-89.0895,"lo2":-89.0444,"dy":0.0017,"dx":0.0017,"nx":28,"ny":28,"refTime":"2023-08-20T09:00:00:Z","depth":"2","parameterNumber":2,"parameterNumberName":"U-component_of_CURRENTS"},"data":[0,0,0,0,0,0,0,0,0,0,0,0,0,0,0,0,0,0,0,0,0,0,0,0,0,0,0,0,0,0,0,0,0,0,0,0,0,0,0,0,0,0,0,0,0,0,0,0,0,0,0,0,0,0,0,0,0,0,-0.0158,-0.0158,0,-0.0152,-0.0152,-0.0152,-0.0155,-0.0155,-0.0155,-0.0155,-0.0142,-0.0142,-0.0141,0,0,0,0,0,0,0,0,0,0,0,0,0,-0.0185,-0.0184,-0.0158,-0.0158,-0.0158,-0.0152,-0.0152,-0.0152,-0.0155,-0.0155,-0.0155,-0.0155,-0.0142,-0.0142,-0.0141,0,0,0,0,0,0,0,0,0,0,0,0,0,-0.0176,-0.0184,-0.0158,-0.0158,-0.0158,-0.0152,-0.0152,-0.0152,-0.0155,-0.0155,-0.0155,-0.0155,-0.0142,-0.0142,-0.0141,-0.0135,0,0,-0.0139,-0.0139,0,0,0,0,0,0,0,0,-0.0177,-0.0175,-0.0158,-0.0158,-0.0158,-0.0154,-0.0157,-0.0146,-0.0155,-0.0157,-0.0155,-0.0155,-0.0144,-0.0144,-0.0144,-0.0135,-0.0134,-0.0139,-0.0139,-0.0138,-0.0138,0,0,0,0,0,0,0,-0.0177,-0.0176,-0.0157,-0.0158,-0.0158,-0.0162,-0.0161,-0.0155,-0.0151,-0.0157,-0.0157,-0.0154,-0.0144,-0.0144,-0.0143,-0.0134,-0.0139,-0.0139,-0.0138,-0.0138,-0.0088,-0.0087,0,0,0,0,0,0,-0.0175,-0.0176,-0.0157,-0.0157,-0.0167,-0.0162,-0.016,-0.0156,-0.0151,-0.015,-0.0154,-0.0155,-0.0145,-0.0144,-0.0143,-0.0106,-0.0138,-0.0138,-0.0137,-0.0089,-0.0088,-0.0087,0,0,0,0,0,0,-0.0176,-0.0174,-0.0157,-0.0166,-0.0164,-0.0161,-0.0155,-0.0155,-0.0145,-0.0149,-0.0148,-0.0143,-0.0145,-0.0144,-0.0126,-0.0106,-0.0138,-0.0137,-0.009,-0.0089,-0.0088,-0.005,0,0,0,0,0,0,-0.0177,-0.0174,-0.0164,-0.0165,-0.0163,-0.0143,-0.0155,-0.0155,-0.0144,-0.0144,-0.0139,-0.0139,-0.0145,-0.0127,-0.0126,-0.0106,-0.0137,-0.0092,-0.009,-0.0088,-0.0053,-0.0048,-0.0044,0,0,0,0,0,-0.0178,-0.0164,-0.0163,-0.0161,-0.0152,-0.0142,-0.0141,-0.014,-0.0143,-0.0133,-0.0131,-0.0139,-0.0115,-0.0126,-0.0125,-0.0104,-0.0092,-0.009,-0.0088,-0.0055,-0.0049,-0.0044,0,0,0,0,0,0,-0.0167,-0.0163,-0.0162,-0.0147,-0.014,-0.0142,-0.0129,-0.0132,-0.0123,-0.0119,-0.0128,-0.0126,-0.0105,-0.0108,-0.012,-0.0084,-0.0104,-0.0102,-0.0079,-0.0074,-0.0069,-0.0054,-0.0136,0,0,0,0,0,-0.0161,-0.0149,-0.0147,-0.0132,-0.0126,-0.0126,-0.012,-0.0119,-0.0114,-0.011,-0.0108,-0.0103,-0.0096,-0.0088,-0.0084,-0.0062,-0.0045,-0.0047,-0.0042,-0.0039,-0.0025,0.0008,0.0017,-0.008,-0.008,-0.008,0,0,-0.0153,-0.0147,-0.0141,-0.0128,-0.0122,-0.0108,-0.0122,-0.0106,-0.0092,-0.0109,-0.0085,-0.0087,-0.0088,-0.0067,-0.0056,-0.0065,0.0001,-0.0036,-0.0033,-0.0021,0.0011,0.0021,0.0029,-0.0079,-0.0079,-0.0079,0,0,-0.0134,-0.0124,-0.011,-0.0101,-0.0087,-0.0085,-0.0078,-0.0071,-0.0064,-0.0045,-0.0054,-0.004,-0.003,-0.0024,-0.0022,0.0014,0.0021,0.0014,0.0053,0.0085,0.0093,0.0101,0.0149,0.016,0.0019,0.0019,0.002,0,-0.0123,-0.0106,-0.0103,-0.0086,-0.0073,-0.0073,-0.0053,-0.0045,-0.0034,-0.0019,-0.003,-0.0003,-0.0008,0.0022,0.0032,0.0025,0.005,0.003,0.0092,0.0099,0.0106,0.0153,0.0165,0.0022,0.0021,0.0021,0.0021,0,-0.0099,-0.008,-0.0067,-0.0047,-0.0032,-0.0013,-0.0002,0.0017,0.0024,0.0031,0.0063,0.0059,0.0078,0.0076,0.0063,0.0112,0.0116,0.009,0.0078,0.0119,0.0165,0.0177,0.0024,0.0024,0.0023,0.0023,0,0,-0.0081,-0.0058,-0.0049,-0.0034,-0.0009,0.0006,0.0038,0.0067,0.0097,0.0106,0.0147,0.0151,0.0153,0.0157,0.0147,0.0171,0.0239,0.0157,0.0157,0.0206,0.033,0.0421,0.0443,0.0223,0.0225,0.0227,0.0348,0,-0.0059,-0.0028,-0.0017,0.0023,0.0041,0.0058,0.0089,0.0117,0.014,0.0181,0.0187,0.0218,0.0183,0.02,0.0219,0.0233,0.027,0.021,0.0282,0.0285,0.0362,0.0459,0.0258,0.0357,0.0359,0.0361,0.0363,0,-0.0033,-0.0016,0.002,0.0059,0.0071,0.0099,0.0157,0.0183,0.0235,0.0256,0.0289,0.0295,0.0338,0.0297,0.0359,0.0324,0.0338,0.0344,0.0349,0.0431,0.04,0.0314,0.0379,0.0383,0.0381,0.038,0.0378,0,-0.0022,0.0016,0.0046,0.0059,0.01,0.0132,0.016,0.0211,0.0247,0.0313,0.0354,0.039,0.0429,0.0445,0.0467,0.0418,0.0545,0.0474,0.0574,0.058,0.0425,0.0416,0.0531,0.0531,0.0531,0.053,0.053,0,-0.0004,0.0026,0.0056,0.0075,0.0122,0.015,0.0211,0.0247,0.0312,0.0371,0.0396,0.0462,0.0468,0.0533,0.0524,0.0622,0.0598,0.0622,0.0632,0.0436,0.0427,0.0448,0.0436,0.0535,0.0534,0.0533,0.0532,0,0.0006,0.0025,0.0062,0.0109,0.0128,0.0165,0.0234,0.0277,0.0342,0.0426,0.0454,0.0541,0.0647,0.0672,0.0728,0.0726,0.0781,0.0814,0.0607,0.0594,0.0774,0.0763,0.0938,0.0943,0.0947,0.095,0.0953,0,0.0011,0.0029,0.0081,0.0106,0.0132,0.0185,0.0224,0.0287,0.0338,0.0478,0.0525,0.0663,0.0759,0.0911,0.094,0.1002,0.0938,0.084,0.0719,0.0832,0.0823,0.0805,0.079,0.0512,0.0511,0.051,0.0509,0,0.0017,0.004,0.0065,0.0115,0.0159,0.0204,0.0268,0.0313,0.0403,0.0492,0.0636,0.073,0.0903,0.0908,0.1016,0.0996,0.0816,0.0833,0.0995,0.0472,0.0449,0.0434,0.0428,0.0501,0.0502,0.0503,0.0503,0.0503,0.0024,0.0039,0.0076,0.0125,0.0168,0.0225,0.0263,0.0341,0.0436,0.0543,0.0654,0.073,0.0733,0.0849,0.0898,0.0915,0.0955,0.0773,0.0766,0.0762,0.0724,0.0712,0.0806,0.0809,0.0811,0.0813,0.0814,0,0.003,0.0051,0.0085,0.0139,0.0177,0.0213,0.0291,0.0326,0.0432,0.0506,0.0611,0.056,0.0575,0.0624,0.0664,0.0736,0.0646,0.0662,0.0444,0.045,0.0455,0.0394,0.0393,0.0394,0.0394,0.0394,0,0,0.0032,0.0062,0.0078,0.0135,0.0177,0.0224,0.0267,0.033,0.0376,0.0448,0.0445,0.0449,0.0503,0.0399,0.042,0.0416,0.0432,0.0399,0.0705,0.0443,0.045,0.0463,0.0371,0,0,0,0,0]},{"header":{"parameterUnit":"m.s-1","parameterCategory":2,"la1":30.2991,"la2":30.254,"lo1":-89.0895,"lo2":-89.0444,"dy":0.0017,"dx":0.0017,"nx":28,"ny":28,"refTime":"2023-08-20T09:00:00:Z","depth":"2","parameterNumber":3,"parameterNumberName":"V-component_of_CURRENTS"},"data":[0,0,0,0,0,0,0,0,0,0,0,0,0,0,0,0,0,0,0,0,0,0,0,0,0,0,0,0,0,0,0,0,0,0,0,0,0,0,0,0,0,0,0,0,0,0,0,0,0,0,0,0,0,0,0,0,0,0,0.0371,0.0371,0,0.0358,0.0358,0.0358,0.0311,0.031,0.0309,0.0307,0.0262,0.0262,0.0262,0,0,0,0,0,0,0,0,0,0,0,0,0,0.0386,0.0386,0.0371,0.0371,0.037,0.0358,0.0358,0.0358,0.0312,0.031,0.0308,0.0307,0.0262,0.0262,0.0262,0,0,0,0,0,0,0,0,0,0,0,0,0,0.038,0.0386,0.0371,0.0343,0.0341,0.0358,0.0358,0.0358,0.0312,0.031,0.0308,0.0306,0.0262,0.0262,0.0262,0.0301,0,0,0.0262,0.0262,0,0,0,0,0,0,0,0,0.038,0.0379,0.0348,0.0345,0.0342,0.0332,0.0347,0.0337,0.0312,0.0326,0.0307,0.0305,0.0282,0.028,0.0286,0.0299,0.0297,0.0262,0.0262,0.0262,0.0262,0,0,0,0,0,0,0,0.038,0.038,0.0369,0.0348,0.0344,0.0342,0.0339,0.0345,0.0316,0.0324,0.032,0.0315,0.028,0.0287,0.0285,0.0297,0.0262,0.0262,0.0262,0.0262,0.0246,0.0245,0,0,0,0,0,0,0.0377,0.038,0.0369,0.0368,0.0354,0.0343,0.034,0.0339,0.0317,0.0311,0.0317,0.0313,0.0288,0.0285,0.0283,0.0245,0.0262,0.0262,0.0262,0.0246,0.0246,0.0245,0,0,0,0,0,0,0.0378,0.0377,0.0369,0.0371,0.037,0.0345,0.0345,0.034,0.0314,0.0311,0.0305,0.0291,0.0286,0.0283,0.0264,0.0246,0.0262,0.0262,0.0247,0.0246,0.0245,0.0223,0,0,0,0,0,0,0.0379,0.0377,0.0368,0.0371,0.0369,0.0364,0.0346,0.0341,0.0315,0.0309,0.0288,0.0283,0.0284,0.0264,0.0264,0.0246,0.0262,0.0247,0.0246,0.0246,0.0224,0.0221,0.0219,0,0,0,0,0,0.0379,0.0378,0.0368,0.0366,0.0361,0.0364,0.0363,0.0341,0.0315,0.0308,0.0289,0.0282,0.0258,0.0264,0.0264,0.0246,0.0248,0.0247,0.0246,0.0225,0.0222,0.0219,0,0,0,0,0,0,0.0377,0.0373,0.0362,0.0358,0.0353,0.0354,0.0341,0.0328,0.031,0.0289,0.0284,0.0279,0.0254,0.0257,0.0264,0.0238,0.025,0.0249,0.0234,0.0231,0.0228,0.022,0.0262,0,0,0,0,0,0.0375,0.037,0.0368,0.036,0.0355,0.0343,0.0336,0.0321,0.0309,0.0297,0.0282,0.0266,0.0259,0.0248,0.0245,0.0237,0.0227,0.0223,0.0221,0.0219,0.0212,0.0189,0.0183,0.0242,0.0242,0.0242,0,0,0.0372,0.0367,0.0363,0.0359,0.0349,0.0348,0.0334,0.0314,0.0306,0.0297,0.027,0.0256,0.0255,0.0242,0.023,0.0236,0.0195,0.0217,0.0216,0.021,0.0187,0.0181,0.0176,0.0241,0.0241,0.0242,0,0,0.037,0.0356,0.0352,0.0349,0.033,0.033,0.0318,0.0304,0.0286,0.0271,0.0256,0.0229,0.0222,0.0215,0.0213,0.0197,0.0183,0.019,0.0169,0.0147,0.0142,0.0138,0.0109,0.0102,0.0188,0.0188,0.0188,0,0.0359,0.0361,0.0351,0.0347,0.0341,0.0319,0.0315,0.0306,0.0285,0.0272,0.0253,0.0222,0.0212,0.02,0.0184,0.019,0.0171,0.0181,0.0143,0.0139,0.0134,0.0106,0.0099,0.0187,0.0187,0.0187,0.0187,0,0.0363,0.0356,0.035,0.0341,0.0337,0.0326,0.0316,0.0296,0.0267,0.0256,0.0221,0.0205,0.0182,0.0174,0.0171,0.0136,0.013,0.0143,0.015,0.0127,0.0099,0.0092,0.0185,0.0185,0.0186,0.0186,0,0,0.0348,0.0354,0.0345,0.0347,0.0329,0.033,0.0311,0.0299,0.0283,0.0245,0.0225,0.0191,0.016,0.0155,0.0142,0.0116,0.0061,0.0106,0.0106,0.0076,-0.0002,0.0032,0.0027,0.0062,0.0061,0.006,-0.0012,0,0.0345,0.035,0.0349,0.0347,0.0349,0.033,0.0325,0.0305,0.028,0.0257,0.0217,0.0191,0.0162,0.0139,0.0106,0.0078,0.0041,0.0078,0.0027,0.0025,0.0056,0.002,0.0031,-0.0029,-0.0019,-0.002,-0.0021,0,0.0338,0.0347,0.0346,0.0359,0.0356,0.0346,0.0327,0.0322,0.0288,0.0264,0.0217,0.0189,0.0132,0.0118,0.0035,0.0056,0.0013,-0.0008,-0.0011,0.0023,0.0045,-0.0003,-0.0043,-0.0033,-0.0032,-0.0032,-0.0031,0,0.0331,0.0341,0.0342,0.0342,0.0351,0.0336,0.0333,0.0308,0.0308,0.0256,0.0242,0.0175,0.0138,0.0073,0.0004,0.001,-0.0076,-0.0063,-0.0073,-0.0071,-0.0069,-0.0065,-0.0126,-0.0126,-0.0125,-0.0125,-0.0125,0,0.0327,0.0325,0.0335,0.0334,0.0338,0.0335,0.0327,0.0312,0.0296,0.03,0.0235,0.0231,0.0122,0.0066,0.0001,-0.0064,-0.0085,-0.009,-0.009,-0.0076,-0.0072,-0.0075,-0.0068,-0.0128,-0.0127,-0.0127,-0.0126,0,0.0308,0.0314,0.0322,0.033,0.033,0.0325,0.0335,0.0344,0.0314,0.0315,0.0296,0.0251,0.0179,0.008,-0.0017,-0.0058,-0.0123,-0.0139,-0.012,-0.0116,-0.0106,-0.0099,-0.0162,-0.0161,-0.0161,-0.016,-0.016,0,0.0301,0.0301,0.0313,0.0325,0.0321,0.0325,0.034,0.0337,0.0357,0.0347,0.0361,0.0289,0.0284,0.0149,0.0056,-0.0055,-0.0111,-0.0141,-0.0117,-0.0118,-0.0111,-0.0105,-0.0099,-0.0137,-0.0137,-0.0136,-0.0136,0,0.0296,0.0287,0.0301,0.0323,0.0336,0.0377,0.0396,0.0424,0.0432,0.0442,0.0468,0.0466,0.0359,0.0257,0.0096,0.0033,-0.0122,-0.0133,-0.0156,-0.0111,-0.0095,-0.0088,-0.0083,-0.0132,-0.0133,-0.0133,-0.0133,-0.0133,0.0285,0.0296,0.0312,0.0332,0.0362,0.0428,0.047,0.0519,0.0571,0.0619,0.0608,0.0568,0.0428,0.0244,0.0125,-0.0039,-0.0014,-0.0115,-0.0117,-0.0119,-0.0084,-0.0066,-0.0093,-0.0094,-0.0094,-0.0094,-0.0094,0,0.0283,0.0299,0.0331,0.0376,0.0425,0.0426,0.0514,0.0586,0.0668,0.0701,0.0748,0.0532,0.0455,0.0235,0.0035,-0.0038,-0.004,-0.0123,-0.0138,-0.0139,-0.0141,-0.0108,-0.0124,-0.0125,-0.0125,-0.0126,0,0,0.0288,0.031,0.0336,0.0417,0.0449,0.0531,0.0584,0.0696,0.0746,0.0742,0.0657,0.0742,0.0452,0.0273,0.0146,-0.0009,-0.0034,-0.0017,0.0025,0.003,0.0029,-0.0116,-0.0064,0,0,0,0,0]}],[{"header":{"parameterUnit":"m.s-1","parameterCategory":2,"la1":30.2991,"la2":30.254,"lo1":-89.0895,"lo2":-89.0444,"dy":0.0017,"dx":0.0017,"nx":28,"ny":28,"refTime":"2023-08-20T09:00:00:Z","depth":"4","parameterNumber":2,"parameterNumberName":"U-component_of_CURRENTS"},"data":[0,0,0,0,0,0,0,0,0,0,0,0,0,0,0,0,0,0,0,0,0,0,0,0,0,0,0,0,0,0,0,0,0,0,0,0,0,0,0,0,0,0,0,0,0,0,0,0,0,0,0,0,0,0,0,0,0,0,0.0134,0.0134,0,0.0134,0.0133,0.0133,0.0097,0.0096,0.0095,0.0095,-0.0011,-0.0013,-0.0015,0,0,0,0,0,0,0,0,0,0,0,0,0,0.0093,0.0094,0.0134,0.0134,0.0134,0.0134,0.0133,0.0133,0.0097,0.0096,0.0095,0.0094,-0.001,-0.0013,-0.0015,0,0,0,0,0,0,0,0,0,0,0,0,0,0.0102,0.0094,0.0134,0.0117,0.0116,0.0134,0.0133,0.0133,0.0097,0.0096,0.0095,0.0094,-0.001,-0.0013,-0.0016,-0.0011,0,0,-0.0025,-0.0026,0,0,0,0,0,0,0,0,0.0101,0.0103,0.0119,0.0118,0.0117,0.0116,0.008,0.008,0.0098,0.0102,0.0095,0.0093,0.0024,0.0018,0.0019,-0.0016,-0.002,-0.0025,-0.0027,-0.0029,-0.0029,0,0,0,0,0,0,0,0.0101,0.0103,0.0132,0.012,0.0118,0.0107,0.0106,0.008,0.0066,0.0102,0.01,0.0103,0.0022,0.0023,0.0016,-0.0022,-0.0025,-0.0028,-0.003,-0.0031,-0.0153,-0.0154,0,0,0,0,0,0,0.0106,0.0103,0.0132,0.0132,0.0108,0.0108,0.0108,0.0116,0.0069,0.0062,0.0104,0.0101,0.0028,0.002,0.0012,-0.0057,-0.0029,-0.0032,-0.0033,-0.0152,-0.0153,-0.0155,0,0,0,0,0,0,0.0106,0.0109,0.0132,0.0118,0.012,0.0111,0.0119,0.0116,0.0099,0.0072,0.0062,0.0088,0.0027,0.0017,-0.003,-0.0059,-0.0033,-0.0036,-0.015,-0.0152,-0.0154,-0.0149,0,0,0,0,0,0,0.0105,0.0109,0.0112,0.0119,0.0121,0.0138,0.0121,0.0117,0.0105,0.0101,0.0055,0.0045,0.0025,-0.0025,-0.0033,-0.0062,-0.0038,-0.0148,-0.0151,-0.0153,-0.0147,-0.0151,-0.0153,0,0,0,0,0,0.0103,0.0114,0.0112,0.0115,0.0127,0.0138,0.0138,0.0126,0.0105,0.0104,0.0062,0.0046,-0.0048,-0.0028,-0.0037,-0.0068,-0.0147,-0.015,-0.0153,-0.0146,-0.015,-0.0153,0,0,0,0,0,0,0.0093,0.0112,0.011,0.0124,0.0129,0.0132,0.0133,0.0119,0.0089,0.0073,0.0038,0.0026,-0.0029,-0.0048,-0.0026,-0.0113,-0.0104,-0.0109,-0.0096,-0.01,-0.0103,-0.007,-0.0041,0,0,0,0,0,0.0096,0.0109,0.012,0.013,0.0135,0.013,0.0129,0.0119,0.0098,0.0084,0.0045,-0.0002,-0.0044,-0.0071,-0.0107,-0.0146,-0.0126,-0.0177,-0.018,-0.0182,-0.0164,-0.017,-0.017,-0.0165,-0.0165,-0.0165,0,0,0.0095,0.0107,0.0113,0.0129,0.0132,0.0141,0.0125,0.0123,0.0115,0.0076,0.0035,-0.0012,-0.0057,-0.0106,-0.0133,-0.0128,-0.017,-0.0186,-0.0187,-0.0167,-0.0173,-0.0173,-0.0173,-0.0167,-0.0167,-0.0166,0,0,0.0106,0.0111,0.0127,0.0135,0.0141,0.0139,0.0135,0.0124,0.0103,0.0065,0.0025,-0.0028,-0.0096,-0.0126,-0.0152,-0.019,-0.0185,-0.0225,-0.0214,-0.0221,-0.022,-0.0219,-0.0171,-0.0167,-0.0227,-0.0227,-0.0227,0,0.0102,0.0126,0.0131,0.0149,0.0154,0.0138,0.0148,0.0133,0.0099,0.0079,0.0047,-0.0053,-0.0099,-0.0143,-0.0169,-0.0194,-0.0182,-0.0194,-0.0221,-0.022,-0.0219,-0.0171,-0.0165,-0.0227,-0.0227,-0.0227,-0.0227,0,0.0128,0.0144,0.0153,0.0171,0.0174,0.018,0.0168,0.0146,0.0105,0.0081,0.0015,-0.0045,-0.0104,-0.0141,-0.0172,-0.0204,-0.019,-0.022,-0.0202,-0.0219,-0.0167,-0.0161,-0.0228,-0.0227,-0.0227,-0.0227,0,0,0.0131,0.0166,0.0169,0.0182,0.0184,0.0192,0.0175,0.0161,0.0147,0.0084,0.0059,-0.0035,-0.0078,-0.0109,-0.0161,-0.0176,-0.0168,-0.0203,-0.0203,-0.0136,-0.0145,-0.0101,-0.009,-0.0213,-0.0212,-0.0212,-0.0101,0,0.0148,0.0189,0.0195,0.0217,0.0234,0.0218,0.0209,0.0186,0.0146,0.0115,0.0049,-0.0003,-0.0063,-0.0105,-0.0131,-0.0168,-0.0158,-0.0192,-0.0155,-0.0152,-0.0096,-0.0084,-0.0211,-0.0096,-0.0095,-0.0094,-0.0093,0,0.017,0.0196,0.0227,0.0246,0.025,0.0251,0.0236,0.0222,0.0181,0.0145,0.0089,0.0039,-0.0006,-0.0057,-0.0086,-0.0111,-0.0122,-0.0135,-0.0132,-0.0085,-0.0098,-0.0085,-0.0083,-0.0084,-0.0085,-0.0085,-0.0086,0,0.0175,0.0214,0.024,0.0249,0.0266,0.0262,0.0253,0.0222,0.0214,0.0162,0.0154,0.0087,0.0063,0.002,-0.0012,-0.0061,-0.0006,-0.0076,-0.0024,-0.0019,-0.0092,-0.0095,-0.0066,-0.0066,-0.0067,-0.0067,-0.0067,0,0.0188,0.0211,0.0246,0.026,0.0278,0.0272,0.0272,0.025,0.0231,0.0235,0.0165,0.0159,0.0075,0.0088,0.0037,0.0053,0.0039,0.0005,0.0009,-0.0091,-0.0095,-0.0086,-0.009,-0.0063,-0.0064,-0.0065,-0.0065,0,0.0185,0.0213,0.0249,0.0276,0.0284,0.0287,0.0295,0.0295,0.0274,0.0284,0.0273,0.0232,0.0224,0.0203,0.0169,0.0142,0.0135,0.0153,0.012,0.0116,0.0114,0.0109,0.0196,0.0199,0.0201,0.0203,0.0204,0,0.0187,0.0207,0.026,0.0281,0.0291,0.0303,0.0313,0.0303,0.0313,0.0328,0.0341,0.0346,0.0317,0.033,0.028,0.0264,0.0237,0.0268,0.0115,0.0145,0.014,0.0131,0.0123,0.0207,0.0208,0.0208,0.0209,0,0.0184,0.0206,0.0234,0.0285,0.0308,0.0334,0.0349,0.0359,0.0364,0.0386,0.0385,0.0367,0.0391,0.0334,0.0371,0.033,0.0249,0.0287,0.028,0.0135,0.0159,0.015,0.014,0.0216,0.0215,0.0214,0.0214,0,0.0175,0.0192,0.0236,0.0273,0.0322,0.034,0.0342,0.0362,0.0372,0.0399,0.0408,0.0396,0.04,0.0376,0.0388,0.0384,0.032,0.0278,0.027,0.0262,0.0224,0.0259,0.0374,0,0,0,0,0,0.0165,0.0181,0.022,0.0257,0.0311,0.0333,0.0369,0.0371,0.0406,0.0408,0.0403,0.0411,0.0396,0.0377,0.0372,0.0394,0.0322,0.0389,0.0269,0.0255,0.0247,0.0192,0,0,0,0,0,0,0.0154,0.019,0.0209,0.0248,0.0272,0.0312,0.0331,0.0343,0.034,0.0376,0.0355,0.0404,0.0377,0.0392,0.0366,0.037,0.0291,0.0399,0.0399,0.026,0.0253,0.0246,0.0187,0,0,0,0,0]},{"header":{"parameterUnit":"m.s-1","parameterCategory":2,"la1":30.2991,"la2":30.254,"lo1":-89.0895,"lo2":-89.0444,"dy":0.0017,"dx":0.0017,"nx":28,"ny":28,"refTime":"2023-08-20T09:00:00:Z","depth":"4","parameterNumber":3,"parameterNumberName":"V-component_of_CURRENTS"},"data":[0,0,0,0,0,0,0,0,0,0,0,0,0,0,0,0,0,0,0,0,0,0,0,0,0,0,0,0,0,0,0,0,0,0,0,0,0,0,0,0,0,0,0,0,0,0,0,0,0,0,0,0,0,0,0,0,0,0,-0.0203,-0.0204,0,-0.0275,-0.0275,-0.0276,-0.033,-0.033,-0.0331,-0.0331,-0.0376,-0.0377,-0.0377,0,0,0,0,0,0,0,0,0,0,0,0,0,-0.0112,-0.0113,-0.0203,-0.0204,-0.0205,-0.0274,-0.0275,-0.0276,-0.033,-0.033,-0.0331,-0.0332,-0.0376,-0.0377,-0.0377,0,0,0,0,0,0,0,0,0,0,0,0,0,-0.0163,-0.0114,-0.0202,-0.0241,-0.0245,-0.0274,-0.0275,-0.0276,-0.0329,-0.033,-0.0331,-0.0332,-0.0376,-0.0377,-0.0378,-0.0366,0,0,-0.0381,-0.0381,0,0,0,0,0,0,0,0,-0.016,-0.0166,-0.0234,-0.0238,-0.0243,-0.0295,-0.026,-0.0305,-0.0329,-0.0296,-0.0331,-0.0332,-0.0347,-0.035,-0.036,-0.0368,-0.037,-0.0381,-0.0381,-0.0382,-0.0382,0,0,0,0,0,0,0,-0.0157,-0.0164,-0.023,-0.0235,-0.024,-0.0254,-0.0263,-0.0269,-0.0314,-0.0299,-0.0303,-0.0313,-0.0349,-0.0359,-0.0362,-0.037,-0.0381,-0.0381,-0.0382,-0.0382,-0.0416,-0.0417,0,0,0,0,0,0,-0.0149,-0.016,-0.0228,-0.0232,-0.0204,-0.0255,-0.0264,-0.0276,-0.0315,-0.0322,-0.0312,-0.0315,-0.0357,-0.036,-0.0363,-0.0375,-0.0382,-0.0383,-0.0383,-0.0416,-0.0416,-0.0417,0,0,0,0,0,0,-0.0147,-0.0155,-0.0225,-0.0199,-0.0209,-0.0256,-0.0269,-0.0277,-0.0308,-0.0325,-0.0332,-0.0337,-0.0358,-0.0362,-0.0391,-0.0376,-0.0383,-0.0384,-0.0416,-0.0416,-0.0416,-0.0383,0,0,0,0,0,0,-0.0144,-0.0154,-0.0167,-0.0198,-0.021,-0.0251,-0.0269,-0.0278,-0.0312,-0.0318,-0.0348,-0.0352,-0.0359,-0.039,-0.0392,-0.0378,-0.0385,-0.0415,-0.0416,-0.0416,-0.0384,-0.0382,-0.0381,0,0,0,0,0,-0.0141,-0.0148,-0.0167,-0.0176,-0.0225,-0.0251,-0.0258,-0.0294,-0.0313,-0.0325,-0.0353,-0.0353,-0.0395,-0.0391,-0.0394,-0.0379,-0.0415,-0.0416,-0.0416,-0.0384,-0.0383,-0.0381,0,0,0,0,0,0,-0.0111,-0.0155,-0.0177,-0.0197,-0.0228,-0.0261,-0.0278,-0.0302,-0.0335,-0.0344,-0.0362,-0.0368,-0.0387,-0.0394,-0.039,-0.0393,-0.0402,-0.0403,-0.0377,-0.0375,-0.0374,-0.0375,-0.0385,0,0,0,0,0,-0.0112,-0.0135,-0.0173,-0.0192,-0.0207,-0.0247,-0.0266,-0.029,-0.0319,-0.0336,-0.0355,-0.0375,-0.0387,-0.0393,-0.0408,-0.041,-0.0416,-0.0402,-0.0401,-0.0399,-0.0404,-0.0402,-0.0401,-0.0419,-0.0419,-0.0419,0,0,-0.0107,-0.0134,-0.0148,-0.0189,-0.0217,-0.0237,-0.0261,-0.0291,-0.031,-0.0333,-0.0363,-0.0376,-0.0391,-0.0396,-0.0403,-0.0402,-0.0398,-0.04,-0.0399,-0.0404,-0.0403,-0.0401,-0.0399,-0.042,-0.0419,-0.0419,0,0,-0.0099,-0.0132,-0.0147,-0.0172,-0.0216,-0.0239,-0.0251,-0.029,-0.0312,-0.0339,-0.0358,-0.0372,-0.039,-0.0395,-0.04,-0.0403,-0.0397,-0.0398,-0.0382,-0.038,-0.0378,-0.0376,-0.0378,-0.0377,-0.0389,-0.0389,-0.0389,0,-0.0092,-0.0119,-0.0155,-0.0173,-0.0195,-0.0241,-0.0258,-0.0283,-0.0326,-0.034,-0.0348,-0.038,-0.039,-0.0395,-0.039,-0.0398,-0.0395,-0.0382,-0.0376,-0.0375,-0.0374,-0.0376,-0.0375,-0.0387,-0.0387,-0.0388,-0.0388,0,-0.0094,-0.012,-0.0129,-0.0172,-0.0197,-0.0219,-0.0258,-0.0284,-0.0313,-0.0334,-0.0355,-0.0369,-0.0382,-0.038,-0.0383,-0.0374,-0.0375,-0.0378,-0.0375,-0.037,-0.0373,-0.0372,-0.0385,-0.0386,-0.0386,-0.0386,0,0,-0.007,-0.0121,-0.0128,-0.0148,-0.02,-0.0219,-0.0251,-0.0289,-0.0309,-0.0335,-0.0351,-0.0362,-0.0364,-0.0371,-0.0369,-0.0363,-0.0347,-0.0358,-0.0358,-0.035,-0.0338,-0.0326,-0.0324,-0.0339,-0.0339,-0.0339,-0.0341,0,-0.0066,-0.0092,-0.0123,-0.0154,-0.0173,-0.0219,-0.0242,-0.0281,-0.0311,-0.0334,-0.0349,-0.0358,-0.0361,-0.0352,-0.0349,-0.0352,-0.0345,-0.0346,-0.0353,-0.0354,-0.0336,-0.0323,-0.0338,-0.0341,-0.0341,-0.0341,-0.0341,0,-0.0064,-0.0084,-0.0108,-0.0151,-0.0163,-0.0188,-0.0238,-0.0263,-0.0304,-0.0319,-0.0333,-0.0343,-0.0341,-0.034,-0.0342,-0.0337,-0.0334,-0.0337,-0.0337,-0.0339,-0.0341,-0.035,-0.034,-0.034,-0.034,-0.034,-0.034,0,-0.0038,-0.0076,-0.0097,-0.0112,-0.0163,-0.0184,-0.0214,-0.0261,-0.0275,-0.0304,-0.0305,-0.0321,-0.0313,-0.0321,-0.0321,-0.0324,-0.0324,-0.0333,-0.0324,-0.0324,-0.0348,-0.035,-0.0332,-0.0332,-0.0332,-0.0332,-0.0332,0,-0.0027,-0.0045,-0.0088,-0.01,-0.0123,-0.0165,-0.0192,-0.0222,-0.0252,-0.0253,-0.0285,-0.0273,-0.0303,-0.0305,-0.0317,-0.0316,-0.0319,-0.0322,-0.0321,-0.0335,-0.0335,-0.0348,-0.035,-0.0332,-0.0332,-0.0332,-0.0332,0,-0.0005,-0.0033,-0.0054,-0.0099,-0.0113,-0.0131,-0.0171,-0.0183,-0.0213,-0.0212,-0.0209,-0.023,-0.0233,-0.0269,-0.0281,-0.0298,-0.0308,-0.0305,-0.0317,-0.0317,-0.0314,-0.0314,-0.0305,-0.0305,-0.0305,-0.0304,-0.0304,0,-0.0,-0.001,-0.0045,-0.0052,-0.0076,-0.0104,-0.0119,-0.0158,-0.0157,-0.0172,-0.0155,-0.0168,-0.0181,-0.0198,-0.024,-0.0282,-0.0283,-0.0295,-0.0309,-0.031,-0.031,-0.0311,-0.0312,-0.0303,-0.0303,-0.0303,-0.0303,0,0.001,-0.0003,-0.0017,-0.0024,-0.0041,-0.0053,-0.007,-0.0064,-0.009,-0.011,-0.0094,-0.0119,-0.0131,-0.0172,-0.0207,-0.0233,-0.0296,-0.0291,-0.0292,-0.0306,-0.0307,-0.0308,-0.0309,-0.0302,-0.0302,-0.0302,-0.0302,0,0.0016,0.0016,0.0003,-0.0004,-0.0007,-0.0003,-0.002,-0.0018,-0.0027,-0.0043,-0.0028,-0.0066,-0.0092,-0.0144,-0.0169,-0.0207,-0.0221,-0.0234,-0.0238,-0.024,-0.0226,-0.0218,-0.0181,0,0,0,0,0,0.0015,0.0018,0.0022,0.0017,0.0025,0.0018,0.0015,0.0001,-0.0012,0.001,-0.0015,-0.0024,-0.0079,-0.0103,-0.0137,-0.0169,-0.0233,-0.0211,-0.0251,-0.0294,-0.0296,-0.0289,0,0,0,0,0,0,0.001,0.0016,0.0025,0.0042,0.0048,0.0051,0.005,0.0039,0.0048,0.0031,0.0007,-0.0025,-0.0077,-0.0054,-0.0133,-0.0148,-0.0176,-0.0244,-0.0245,-0.0293,-0.0295,-0.0296,-0.029,0,0,0,0,0]}]]